RH
5 5 5 5 5 5 5 5 4 4 4 4 5 5 5 6 8 10 10 12 14 19 23 26 35 39 48 53 66 72 65 57 57 61 53 56 49 49 50 52 56 58 54 49 52
6 6 6 6 5 5 5 5 4 4 4 4 4 4 5 5 6 7 11 11 12 16 23 25 34 39 46 51 61 70 59 54 52 51 50 53 48 46 43 48 50 53 52 47 53
8 7 7 7 6 6 5 5 5 5 5 4 4 4 5 5 5 7 10 13 11 14 17 23 27 39 41 49 54 64 59 52 50 46 47 55 50 45 40 42 43 47 50 51 51
9 8 7 6 6 5 5 5 4 4 4 5 5 5 5 5 4 9 11 11 13 13 17 22 29 34 42 46 49 58 57 55 50 44 41 58 56 46 40 37 40 43 47 49 51
10 10 9 8 6 6 5 5 4 4 4 4 4 5 5 5 4 5 11 11 11 13 17 19 25 29 39 43 43 52 52 50 50 44 41 51 56 52 42 38 36 40 43 46 52
12 11 10 9 7 6 5 5 4 4 4 4 4 4 5 6 4 4 6 12 12 11 14 17 20 26 33 39 43 42 43 45 42 40 37 42 45 55 46 45 39 38 41 43 48
15 13 12 10 7 6 6 5 4 4 4 4 4 4 4 4 4 4 6 10 15 13 12 16 18 23 27 35 38 37 40 41 37 37 36 40 44 45 49 48 43 38 39 43 46
19 16 14 10 8 7 6 5 4 4 4 4 4 5 4 3 4 4 5 7 10 15 15 14 17 19 24 29 36 37 39 40 39 37 42 37 35 42 55 50 49 39 36 41 44
22 19 15 11 8 7 5 5 5 5 6 6 6 5 5 4 5 6 5 5 9 15 17 16 17 19 23 23 32 37 41 40 42 42 47 40 39 48 54 53 48 40 33 39 40
25 22 17 12 8 6 5 5 6 5 6 6 7 8 4 6 7 7 6 6 11 18 21 18 18 17 19 22 23 32 40 39 44 45 49 45 45 48 52 54 46 41 34 34 38
26 24 18 11 8 8 7 6 7 7 7 6 6 6 5 6 5 6 6 7 12 19 22 22 17 16 16 20 23 28 39 41 41 43 51 48 50 52 55 55 55 43 33 29 34
24 21 19 13 10 9 9 8 10 12 11 9 9 8 6 5 5 7 7 8 12 16 21 24 20 15 15 18 24 29 32 42 43 43 49 49 51 54 54 57 58 48 41 28 32
21 18 20 19 14 11 11 10 11 12 11 11 12 11 9 6 5 7 10 9 12 15 19 23 20 17 18 19 23 25 31 37 44 48 47 52 52 53 52 55 56 53 45 36 30
21 19 17 21 20 16 16 13 12 13 11 14 13 13 13 10 7 6 11 12 11 15 17 20 22 21 18 20 21 25 30 35 39 44 48 49 46 47 46 48 51 53 51 41 31
23 21 19 22 23 23 20 17 17 16 11 15 17 15 15 14 11 9 7 12 14 14 17 18 20 22 20 18 19 23 29 36 39 42 45 53 49 40 44 47 44 45 51 46 34
25 21 22 25 26 25 23 21 19 17 14 17 19 19 18 17 15 13 10 8 10 16 16 16 20 22 21 17 20 22 27 36 46 45 41 37 46 37 41 37 38 41 43 47 40
23 24 23 24 29 28 26 23 21 19 20 19 20 22 20 20 18 18 17 15 12 11 15 18 18 23 22 20 19 24 25 33 45 45 36 35 37 31 32 40 37 37 35 37 38
24 24 25 26 31 33 28 26 25 24 22 21 21 23 24 22 21 20 20 21 19 15 12 16 17 21 23 20 18 20 25 30 44 46 38 41 34 29 29 32 34 34 33 34 36
23 26 28 30 31 33 31 28 28 25 24 23 24 25 27 25 24 22 23 26 26 22 15 14 16 19 23 22 17 18 20 24 33 41 39 33 32 30 31 32 33 33 31 27 27
29 29 31 32 33 32 30 31 28 26 25 25 28 28 27 29 26 25 26 28 29 27 23 22 18 16 22 25 21 16 15 20 27 39 38 32 32 27 30 31 31 33 29 22 21
31 32 34 34 36 33 32 32 30 28 28 27 28 30 31 30 32 30 31 31 29 28 28 26 19 20 18 25 24 20 18 17 21 28 33 33 26 28 31 32 34 35 30 26 21
33 37 38 35 37 38 35 34 32 31 29 28 29 30 33 34 32 34 34 33 31 30 29 31 25 20 20 24 27 23 17 15 17 26 27 29 26 27 30 33 33 33 35 35 30
35 40 41 39 40 39 38 36 36 34 32 31 32 32 34 35 36 34 35 36 33 31 36 32 28 20 20 23 28 28 23 18 17 19 21 24 23 25 30 34 34 35 35 35 34
36 40 40 40 42 39 40 40 40 40 40 38 38 37 37 36 38 39 36 37 36 37 38 37 33 33 20 29 29 31 27 23 18 18 18 19 21 23 29 31 32 33 34 40 39
39 43 42 41 40 41 42 45 47 48 48 46 44 44 42 42 41 40 41 37 35 37 35 36 33 32 27 24 28 31 32 27 22 19 17 16 19 21 29 32 32 31 35 39 42
40 39 39 42 43 43 47 54 55 57 59 58 58 55 52 49 45 41 39 38 37 36 35 37 34 39 29 24 27 33 35 32 26 22 20 18 18 25 32 35 34 35 38 39 42
40 40 39 43 43 46 52 54 55 58 61 64 66 66 61 58 52 46 42 39 35 37 38 36 42 37 30 30 30 34 35 37 39 38 32 21 21 30 29 37 37 39 44 45 42